When you browse on this site, cookies collect data to enhance your experience and personalize the content and advertising you see.
Visit our Privacy Policy to learn more. By continuing to use the site, you agree to this use of cookies and data.
  • Em Portugal
  • Lista de países
  • Para 7 dias
  • Temperatura da água
  • Mapa do tempo
  • Widgets de tempo
  • user-avatar
    Iniciar Sessão

    Previsão horária em Belyy Yar

    Hoje, 4 Junho, Quinta-feira

    Tempo Temperatura Precipitação Vento Pressão Humidade
    00:00 +11°C° 0 mm 1 m/s 736 mmHg 80%
    01:00 +11°C° 0 mm 1 m/s 736 mmHg 81%
    02:00 +10°C° 0 mm 1 m/s 735 mmHg 83%
    03:00 +10°C° 0 mm 1 m/s 735 mmHg 84%
    04:00 +10°C° 0 mm 1 m/s 735 mmHg 82%
    05:00 +11°C° 0 mm 1 m/s 735 mmHg 80%
    06:00 +12°C° 0 mm 1 m/s 734 mmHg 79%
    07:00 +13°C° 0.1 mm 1 m/s 734 mmHg 75%
    08:00 +14°C° 0.1 mm 1 m/s 734 mmHg 71%
    09:00 +15°C° 0.1 mm 1 m/s 733 mmHg 66%
    10:00 +16°C° 0.2 mm 1 m/s 733 mmHg 61%
    11:00 +18°C° 0.2 mm 1 m/s 733 mmHg 56%
    12:00 +18°C° 0 mm 2 m/s 733 mmHg 49%
    13:00 +17°C° 0.2 mm 2 m/s 733 mmHg 53%
    14:00 +17°C° 0.2 mm 2 m/s 733 mmHg 57%
    15:00 +16°C° 0.2 mm 3 m/s 732 mmHg 61%
    16:00 +16°C° 0.4 mm 2 m/s 732 mmHg 62%
    17:00 +16°C° 0.4 mm 2 m/s 732 mmHg 64%
    18:00 +16°C° 0 mm 2 m/s 733 mmHg 67%
    19:00 +14°C° 0.2 mm 2 m/s 733 mmHg 71%
    20:00 +13°C° 0.2 mm 1 m/s 733 mmHg 75%
    21:00 +12°C° 0.2 mm 1 m/s 733 mmHg 80%
    22:00 +11°C° 0 mm 1 m/s 733 mmHg 81%
    23:00 +11°C° 0 mm 1 m/s 733 mmHg 82%

    Amanhã, 5 Junho, Sexta-feira

    Tempo Temperatura Precipitação Vento Pressão Humidade
    00:00 +10°C° 0 mm 1 m/s 732 mmHg 83%
    01:00 +9°C° 0 mm 2 m/s 732 mmHg 84%
    02:00 +9°C° 0 mm 2 m/s 732 mmHg 85%
    03:00 +8°C° 0 mm 2 m/s 731 mmHg 86%
    04:00 +10°C° 0.3 mm 1 m/s 731 mmHg 85%
    05:00 +10°C° 0.3 mm 1 m/s 731 mmHg 85%
    06:00 +11°C° 0.3 mm 1 m/s 731 mmHg 84%
    07:00 +11°C° 0.4 mm 1 m/s 730 mmHg 84%
    08:00 +11°C° 0.4 mm 1 m/s 730 mmHg 84%
    09:00 +12°C° 0.4 mm 1 m/s 729 mmHg 84%
    10:00 +12°C° 0.1 mm 1 m/s 729 mmHg 80%
    11:00 +13°C° 0.1 mm 1 m/s 729 mmHg 76%
    12:00 +14°C° 0.1 mm 1 m/s 729 mmHg 72%
    13:00 +14°C° 0 mm 1 m/s 728 mmHg 69%
    14:00 +15°C° 0 mm 2 m/s 728 mmHg 67%
    15:00 +16°C° 0 mm 2 m/s 728 mmHg 64%
    16:00 +14°C° 0.4 mm 3 m/s 728 mmHg 68%
    17:00 +14°C° 0.4 mm 3 m/s 729 mmHg 72%
    18:00 +13°C° 0.4 mm 3 m/s 729 mmHg 76%
    19:00 +13°C° 0.7 mm 4 m/s 730 mmHg 78%
    20:00 +12°C° 0.7 mm 4 m/s 730 mmHg 81%
    21:00 +11°C° 0.7 mm 4 m/s 730 mmHg 84%
    22:00 +11°C° 0.1 mm 4 m/s 731 mmHg 84%
    23:00 +9°C° 0.1 mm 5 m/s 731 mmHg 84%

    Depois de amanhã, 6 Junho, Sábado

    Tempo Temperatura Precipitação Vento Pressão Humidade
    00:00 +9°C° 0.1 mm 5 m/s 731 mmHg 84%
    01:00 +9°C° 0 mm 5 m/s 731 mmHg 83%
    02:00 +9°C° 0 mm 6 m/s 732 mmHg 82%
    03:00 +8°C° 0 mm 6 m/s 732 mmHg 82%
    04:00 +9°C° 0.1 mm 6 m/s 733 mmHg 81%
    05:00 +9°C° 0.1 mm 6 m/s 733 mmHg 80%
    06:00 +9°C° 0.1 mm 7 m/s 734 mmHg 79%
    07:00 +10°C° 0.4 mm 6 m/s 735 mmHg 75%
    08:00 +11°C° 0.4 mm 6 m/s 735 mmHg 71%
    09:00 +13°C° 0.4 mm 6 m/s 735 mmHg 67%
    10:00 +13°C° 0.7 mm 6 m/s 736 mmHg 67%
    11:00 +13°C° 0.7 mm 6 m/s 736 mmHg 67%
    12:00 +14°C° 0.7 mm 5 m/s 736 mmHg 66%
    13:00 +14°C° 0.7 mm 5 m/s 736 mmHg 67%
    14:00 +14°C° 0.7 mm 5 m/s 736 mmHg 68%
    15:00 +14°C° 0.7 mm 4 m/s 736 mmHg 68%
    16:00 +14°C° 0.3 mm 4 m/s 737 mmHg 70%
    17:00 +13°C° 0.3 mm 3 m/s 737 mmHg 71%
    18:00 +14°C° 0.3 mm 2 m/s 737 mmHg 73%
    19:00 +13°C° 0.2 mm 2 m/s 738 mmHg 77%
    20:00 +12°C° 0.2 mm 2 m/s 738 mmHg 81%
    21:00 +10°C° 0.2 mm 2 m/s 738 mmHg 85%
    22:00 +10°C° 0 mm 2 m/s 738 mmHg 85%
    23:00 +10°C° 0 mm 2 m/s 739 mmHg 86%

    7 Junho, Domingo

    Tempo Temperatura Precipitação Vento Pressão Humidade
    00:00 +10°C° 0 mm 2 m/s 739 mmHg 86%
    01:00 +10°C° 0.1 mm 2 m/s 739 mmHg 86%
    02:00 +10°C° 0.1 mm 2 m/s 739 mmHg 86%
    03:00 +10°C° 0.1 mm 2 m/s 739 mmHg 86%
    04:00 +10°C° 0.2 mm 2 m/s 739 mmHg 86%
    05:00 +10°C° 0.2 mm 2 m/s 739 mmHg 85%
    06:00 +10°C° 0.2 mm 2 m/s 740 mmHg 85%
    07:00 +12°C° 0 mm 2 m/s 740 mmHg 81%
    08:00 +12°C° 0 mm 2 m/s 739 mmHg 77%
    09:00 +13°C° 0 mm 2 m/s 739 mmHg 73%
    10:00 +13°C° 0.2 mm 3 m/s 739 mmHg 69%
    11:00 +14°C° 0.2 mm 3 m/s 739 mmHg 64%
    12:00 +15°C° 0.2 mm 4 m/s 739 mmHg 60%
    13:00 +14°C° 0.6 mm 3 m/s 739 mmHg 67%
    14:00 +13°C° 0.6 mm 3 m/s 739 mmHg 73%
    15:00 +12°C° 0.6 mm 3 m/s 738 mmHg 80%
    16:00 +14°C° 0.3 mm 2 m/s 738 mmHg 77%
    17:00 +15°C° 0.3 mm 2 m/s 738 mmHg 75%
    18:00 +15°C° 0.3 mm 2 m/s 739 mmHg 72%
    19:00 +14°C° 0.4 mm 2 m/s 739 mmHg 75%
    20:00 +13°C° 0.4 mm 2 m/s 739 mmHg 77%
    21:00 +12°C° 0.4 mm 1 m/s 739 mmHg 80%
    22:00 +12°C° 0.2 mm 2 m/s 739 mmHg 82%
    23:00 +10°C° 0.2 mm 2 m/s 739 mmHg 83%

    8 Junho, Segunda-feira

    Tempo Temperatura Precipitação Vento Pressão Humidade
    00:00 +10°C° 0.2 mm 2 m/s 739 mmHg 85%
    01:00 +10°C° 0.1 mm 2 m/s 739 mmHg 85%
    02:00 +10°C° 0.1 mm 2 m/s 739 mmHg 85%
    03:00 +9°C° 0.1 mm 2 m/s 739 mmHg 84%
    04:00 +10°C° 0.1 mm 2 m/s 740 mmHg 83%
    05:00 +10°C° 0.1 mm 3 m/s 740 mmHg 81%
    06:00 +11°C° 0.1 mm 3 m/s 740 mmHg 79%
    07:00 +13°C° 0.3 mm 3 m/s 740 mmHg 70%
    08:00 +14°C° 0.3 mm 3 m/s 740 mmHg 61%
    09:00 +16°C° 0.3 mm 3 m/s 740 mmHg 52%
    10:00 +17°C° 0 mm 3 m/s 740 mmHg 49%
    11:00 +17°C° 0 mm 3 m/s 740 mmHg 46%
    12:00 +18°C° 0 mm 3 m/s 740 mmHg 43%
    13:00 +18°C° 0 mm 3 m/s 739 mmHg 43%
    14:00 +19°C° 0 mm 3 m/s 739 mmHg 43%
    15:00 +19°C° 0 mm 3 m/s 739 mmHg 43%
    16:00 +19°C° 0 mm 3 m/s 739 mmHg 48%
    17:00 +19°C° 0 mm 2 m/s 738 mmHg 53%
    18:00 +18°C° 0 mm 2 m/s 738 mmHg 58%
    19:00 +17°C° 0 mm 2 m/s 738 mmHg 60%
    20:00 +16°C° 0 mm 2 m/s 738 mmHg 61%
    21:00 +15°C° 0 mm 2 m/s 738 mmHg 63%
    22:00 +13°C° 0.5 mm 3 m/s 738 mmHg 71%
    23:00 +12°C° 0.5 mm 4 m/s 737 mmHg 79%

    9 Junho, Terça-feira

    Tempo Temperatura Precipitação Vento Pressão Humidade
    00:00 +12°C° 0.5 mm 5 m/s 737 mmHg 87%
    01:00 +10°C° 2.2 mm 6 m/s 736 mmHg 88%
    02:00 +10°C° 2.2 mm 6 m/s 736 mmHg 90%
    03:00 +10°C° 2.2 mm 6 m/s 735 mmHg 91%
    04:00 +11°C° 1.9 mm 6 m/s 735 mmHg 91%
    05:00 +12°C° 1.9 mm 5 m/s 734 mmHg 92%
    06:00 +12°C° 1.9 mm 5 m/s 734 mmHg 92%
    07:00 +12°C° 3.6 mm 4 m/s 734 mmHg 93%
    08:00 +12°C° 3.6 mm 3 m/s 733 mmHg 94%
    09:00 +13°C° 3.6 mm 2 m/s 733 mmHg 94%
    10:00 +13°C° 2.2 mm 2 m/s 733 mmHg 94%
    11:00 +13°C° 2.2 mm 2 m/s 733 mmHg 94%
    12:00 +13°C° 2.2 mm 2 m/s 733 mmHg 94%
    13:00 +14°C° 0.4 mm 3 m/s 734 mmHg 85%
    14:00 +17°C° 0.4 mm 4 m/s 734 mmHg 76%
    15:00 +17°C° 0.4 mm 5 m/s 735 mmHg 68%
    16:00 +18°C° 0.2 mm 4 m/s 735 mmHg 68%
    17:00 +18°C° 0.2 mm 4 m/s 736 mmHg 69%
    18:00 +18°C° 0.2 mm 3 m/s 736 mmHg 69%
    19:00 +16°C° 0 mm 2 m/s 737 mmHg 70%
    20:00 +14°C° 0 mm 1 m/s 737 mmHg 72%
    21:00 +12°C° 0 mm 0 m/s 738 mmHg 73%
    22:00 +13°C° 0 mm 1 m/s 738 mmHg 74%
    23:00 +12°C° 0 mm 1 m/s 738 mmHg 75%
    Mostrar mais